owner,sensor,date,latitude,longitude,vertical_datum,mass_concentration_of_oxygen_in_sea_water,qcFlag 
DISL,ioos:station:DISL:DISL:1,2011-12-01T00:00:00Z,30.2513,-88.0778,6.027,10.0,1111122 
DISL,ioos:station:DISL:DISL:1,2011-12-01T00:30:00Z,30.2513,-88.0778,6.099,10.03,1111122 
DISL,ioos:station:DISL:DISL:1,2011-12-01T01:00:00Z,30.2513,-88.0778,6.02,9.92,1111122 
DISL,ioos:station:DISL:DISL:1,2011-12-01T01:30:00Z,30.2513,-88.0778,6.254,9.99,1111122 
DISL,ioos:station:DISL:DISL:1,2011-12-01T02:00:00Z,30.2513,-88.0778,6.173,9.97,1111122 
DISL,ioos:station:DISL:DISL:1,2011-12-01T02:30:00Z,30.2513,-88.0778,6.322,9.88,1111122 
DISL,ioos:station:DISL:DISL:1,2011-12-01T03:00:00Z,30.2513,-88.0778,6.385,9.81,1111122 
DISL,ioos:station:DISL:DISL:1,2011-12-01T03:30:00Z,30.2513,-88.0778,6.341,9.85,1111122 
DISL,ioos:station:DISL:DISL:1,2011-12-01T04:00:00Z,30.2513,-88.0778,6.332,9.81,1111122 
DISL,ioos:station:DISL:DISL:1,2011-12-01T04:30:00Z,30.2513,-88.0778,6.205,9.78,1111122 
DISL,ioos:station:DISL:DISL:1,2011-12-01T05:00:00Z,30.2513,-88.0778,6.377,9.8,1111122 
DISL,ioos:station:DISL:DISL:1,2011-12-01T05:30:00Z,30.2513,-88.0778,6.501,9.74,1111122 
DISL,ioos:station:DISL:DISL:1,2011-12-01T06:00:00Z,30.2513,-88.0778,6.546,9.66,1111122 
DISL,ioos:station:DISL:DISL:1,2011-12-01T06:30:00Z,30.2513,-88.0778,6.528,9.14,1111122 
DISL,ioos:station:DISL:DISL:1,2011-12-01T07:00:00Z,30.2513,-88.0778,6.422,9.09,1111122 
DISL,ioos:station:DISL:DISL:1,2011-12-01T07:30:00Z,30.2513,-88.0778,6.414,9.07,1111122 
DISL,ioos:station:DISL:DISL:1,2011-12-01T08:00:00Z,30.2513,-88.0778,6.503,9.11,1111122 
DISL,ioos:station:DISL:DISL:1,2011-12-01T08:30:00Z,30.2513,-88.0778,6.295,9.06,1111122 
DISL,ioos:station:DISL:DISL:1,2011-12-01T09:00:00Z,30.2513,-88.0778,6.451,9.04,1111122 
DISL,ioos:station:DISL:DISL:1,2011-12-01T09:30:00Z,30.2513,-88.0778,6.327,9.01,1111122 
DISL,ioos:station:DISL:DISL:1,2011-12-01T10:00:00Z,30.2513,-88.0778,6.514,9.0,1111122 
DISL,ioos:station:DISL:DISL:1,2011-12-01T10:30:00Z,30.2513,-88.0778,6.382,8.99,1111122 
DISL,ioos:station:DISL:DISL:1,2011-12-01T11:00:00Z,30.2513,-88.0778,6.252,8.98,1111122 
DISL,ioos:station:DISL:DISL:1,2011-12-01T11:30:00Z,30.2513,-88.0778,6.242,8.99,1111122 
DISL,ioos:station:DISL:DISL:1,2011-12-01T12:00:00Z,30.2513,-88.0778,6.08,8.99,1111122 
DISL,ioos:station:DISL:DISL:1,2011-12-01T12:30:00Z,30.2513,-88.0778,6.106,8.98,1111122 
DISL,ioos:station:DISL:DISL:1,2011-12-01T13:00:00Z,30.2513,-88.0778,6.018,8.98,1111122 
DISL,ioos:station:DISL:DISL:1,2011-12-01T13:30:00Z,30.2513,-88.0778,5.895,8.94,1111122 
DISL,ioos:station:DISL:DISL:1,2011-12-01T14:00:00Z,30.2513,-88.0778,5.832,8.97,1111122 
DISL,ioos:station:DISL:DISL:1,2011-12-01T14:30:00Z,30.2513,-88.0778,5.881,8.94,1111122 
DISL,ioos:station:DISL:DISL:1,2011-12-01T15:00:00Z,30.2513,-88.0778,5.78,9.04,1111122 
DISL,ioos:station:DISL:DISL:1,2011-12-01T15:30:00Z,30.2513,-88.0778,5.827,9.06,1111122 
DISL,ioos:station:DISL:DISL:1,2011-12-01T16:00:00Z,30.2513,-88.0778,5.864,9.04,1111122 
DISL,ioos:station:DISL:DISL:1,2011-12-01T16:30:00Z,30.2513,-88.0778,5.701,9.09,1111122 
DISL,ioos:station:DISL:DISL:1,2011-12-01T17:00:00Z,30.2513,-88.0778,5.649,9.25,1111122 
DISL,ioos:station:DISL:DISL:1,2011-12-01T17:30:00Z,30.2513,-88.0778,5.621,9.26,1111122 
DISL,ioos:station:DISL:DISL:1,2011-12-01T18:00:00Z,30.2513,-88.0778,5.646,9.24,1111122 
DISL,ioos:station:DISL:DISL:1,2011-12-01T18:30:00Z,30.2513,-88.0778,5.703,9.19,1111122 
DISL,ioos:station:DISL:DISL:1,2011-12-01T19:00:00Z,30.2513,-88.0778,5.716,9.15,1111122 
DISL,ioos:station:DISL:DISL:1,2011-12-01T19:30:00Z,30.2513,-88.0778,5.719,9.02,1111122 
DISL,ioos:station:DISL:DISL:1,2011-12-01T20:00:00Z,30.2513,-88.0778,5.777,9.1,1111122 
DISL,ioos:station:DISL:DISL:1,2011-12-01T20:30:00Z,30.2513,-88.0778,5.811,8.9,1111122 
DISL,ioos:station:DISL:DISL:1,2011-12-01T21:00:00Z,30.2513,-88.0778,5.83,8.93,1111122 
DISL,ioos:station:DISL:DISL:1,2011-12-01T21:30:00Z,30.2513,-88.0778,5.897,8.92,1111122 
DISL,ioos:station:DISL:DISL:1,2011-12-01T22:00:00Z,30.2513,-88.0778,5.922,9.18,1111122 
DISL,ioos:station:DISL:DISL:1,2011-12-01T22:30:00Z,30.2513,-88.0778,5.962,9.38,1111122 
DISL,ioos:station:DISL:DISL:1,2011-12-01T23:00:00Z,30.2513,-88.0778,5.939,9.48,1111122 
DISL,ioos:station:DISL:DISL:1,2011-12-01T23:30:00Z,30.2513,-88.0778,6.114,9.58,1111122 
DISL,ioos:station:DISL:DISL:1,2011-12-02T00:00:00Z,30.2513,-88.0778,6.043,9.57,1111122 
DISL,ioos:station:DISL:DISL:1,2011-12-02T00:30:00Z,30.2513,-88.0778,6.136,9.43,1111122 
DISL,ioos:station:DISL:DISL:1,2011-12-02T01:00:00Z,30.2513,-88.0778,6.179,9.29,1111122 
DISL,ioos:station:DISL:DISL:1,2011-12-02T01:30:00Z,30.2513,-88.0778,6.123,9.0,1111122 
DISL,ioos:station:DISL:DISL:1,2011-12-02T02:00:00Z,30.2513,-88.0778,6.149,9.15,1111122 
DISL,ioos:station:DISL:DISL:1,2011-12-02T02:30:00Z,30.2513,-88.0778,6.208,9.17,1111122 
DISL,ioos:station:DISL:DISL:1,2011-12-02T03:00:00Z,30.2513,-88.0778,6.072,9.36,1111122 
DISL,ioos:station:DISL:DISL:1,2011-12-02T03:30:00Z,30.2513,-88.0778,6.261,9.44,1111122 
DISL,ioos:station:DISL:DISL:1,2011-12-02T04:00:00Z,30.2513,-88.0778,6.232,9.13,1111122 
DISL,ioos:station:DISL:DISL:1,2011-12-02T04:30:00Z,30.2513,-88.0778,6.257,9.52,1111122 
DISL,ioos:station:DISL:DISL:1,2011-12-02T05:00:00Z,30.2513,-88.0778,6.266,9.6,1111122 
DISL,ioos:station:DISL:DISL:1,2011-12-02T05:30:00Z,30.2513,-88.0778,6.271,9.49,1111122 
DISL,ioos:station:DISL:DISL:1,2011-12-02T06:00:00Z,30.2513,-88.0778,6.385,9.5,1111122 
DISL,ioos:station:DISL:DISL:1,2011-12-02T06:30:00Z,30.2513,-88.0778,6.32,9.55,1111122 
DISL,ioos:station:DISL:DISL:1,2011-12-02T07:00:00Z,30.2513,-88.0778,6.27,9.44,1111122 
DISL,ioos:station:DISL:DISL:1,2011-12-02T07:30:00Z,30.2513,-88.0778,6.372,9.5,1111122 
DISL,ioos:station:DISL:DISL:1,2011-12-02T08:00:00Z,30.2513,-88.0778,6.181,9.5,1111122 
DISL,ioos:station:DISL:DISL:1,2011-12-02T08:30:00Z,30.2513,-88.0778,6.25,9.52,1111122 
DISL,ioos:station:DISL:DISL:1,2011-12-02T09:00:00Z,30.2513,-88.0778,6.273,9.55,1111122 
DISL,ioos:station:DISL:DISL:1,2011-12-02T09:30:00Z,30.2513,-88.0778,6.277,9.53,1111122 
DISL,ioos:station:DISL:DISL:1,2011-12-02T10:00:00Z,30.2513,-88.0778,6.221,9.4,1111122 
DISL,ioos:station:DISL:DISL:1,2011-12-02T10:30:00Z,30.2513,-88.0778,6.156,9.34,1111122 
DISL,ioos:station:DISL:DISL:1,2011-12-02T11:00:00Z,30.2513,-88.0778,6.105,9.31,1111122 
DISL,ioos:station:DISL:DISL:1,2011-12-02T11:30:00Z,30.2513,-88.0778,6.205,9.3,1111122 
DISL,ioos:station:DISL:DISL:1,2011-12-02T12:00:00Z,30.2513,-88.0778,6.022,9.3,1111122 
DISL,ioos:station:DISL:DISL:1,2011-12-02T12:30:00Z,30.2513,-88.0778,6.008,9.3,1111122 
DISL,ioos:station:DISL:DISL:1,2011-12-02T13:00:00Z,30.2513,-88.0778,6.107,9.3,1111122 
DISL,ioos:station:DISL:DISL:1,2011-12-02T13:30:00Z,30.2513,-88.0778,6.074,9.31,1111122 
DISL,ioos:station:DISL:DISL:1,2011-12-02T14:00:00Z,30.2513,-88.0778,5.97,9.32,1111122 
DISL,ioos:station:DISL:DISL:1,2011-12-02T14:30:00Z,30.2513,-88.0778,5.943,9.38,1111122 
DISL,ioos:station:DISL:DISL:1,2011-12-02T15:00:00Z,30.2513,-88.0778,6.051,9.47,1111122 
DISL,ioos:station:DISL:DISL:1,2011-12-02T15:30:00Z,30.2513,-88.0778,5.935,9.53,1111122 
DISL,ioos:station:DISL:DISL:1,2011-12-02T16:00:00Z,30.2513,-88.0778,5.917,9.64,1111122 
DISL,ioos:station:DISL:DISL:1,2011-12-02T16:30:00Z,30.2513,-88.0778,5.888,9.66,1111122 
DISL,ioos:station:DISL:DISL:1,2011-12-02T17:00:00Z,30.2513,-88.0778,5.896,9.61,1111122 
DISL,ioos:station:DISL:DISL:1,2011-12-02T17:30:00Z,30.2513,-88.0778,5.93,9.64,1111122 
DISL,ioos:station:DISL:DISL:1,2011-12-02T18:00:00Z,30.2513,-88.0778,5.904,9.62,1111122 
DISL,ioos:station:DISL:DISL:1,2011-12-02T18:30:00Z,30.2513,-88.0778,5.954,9.71,1111122 
DISL,ioos:station:DISL:DISL:1,2011-12-02T19:00:00Z,30.2513,-88.0778,5.928,9.67,1111122 
DISL,ioos:station:DISL:DISL:1,2011-12-02T19:30:00Z,30.2513,-88.0778,6.006,9.43,1111122 
DISL,ioos:station:DISL:DISL:1,2011-12-02T20:00:00Z,30.2513,-88.0778,6.054,9.25,1111122 
DISL,ioos:station:DISL:DISL:1,2011-12-02T20:30:00Z,30.2513,-88.0778,6.087,9.0,1111122 
DISL,ioos:station:DISL:DISL:1,2011-12-02T21:00:00Z,30.2513,-88.0778,6.095,8.85,1111122 
DISL,ioos:station:DISL:DISL:1,2011-12-02T21:30:00Z,30.2513,-88.0778,6.112,9.05,1111122 
DISL,ioos:station:DISL:DISL:1,2011-12-02T22:00:00Z,30.2513,-88.0778,6.18,9.25,1111122 
DISL,ioos:station:DISL:DISL:1,2011-12-02T22:30:00Z,30.2513,-88.0778,6.274,9.2,1111122 
DISL,ioos:station:DISL:DISL:1,2011-12-02T23:00:00Z,30.2513,-88.0778,6.267,9.04,1111122 
DISL,ioos:station:DISL:DISL:1,2011-12-02T23:30:00Z,30.2513,-88.0778,6.259,9.23,1111122 
DISL,ioos:station:DISL:DISL:1,2011-12-03T00:00:00Z,30.2513,-88.0778,6.317,9.2,1111122 
DISL,ioos:station:DISL:DISL:1,2011-12-03T00:30:00Z,30.2513,-88.0778,6.357,9.28,1111122 
DISL,ioos:station:DISL:DISL:1,2011-12-03T01:00:00Z,30.2513,-88.0778,6.391,9.25,1111122 
DISL,ioos:station:DISL:DISL:1,2011-12-03T01:30:00Z,30.2513,-88.0778,6.374,9.48,1111122 
DISL,ioos:station:DISL:DISL:1,2011-12-03T02:00:00Z,30.2513,-88.0778,6.359,9.44,1111122 
DISL,ioos:station:DISL:DISL:1,2011-12-03T02:30:00Z,30.2513,-88.0778,6.382,9.48,1111122 
DISL,ioos:station:DISL:DISL:1,2011-12-03T03:00:00Z,30.2513,-88.0778,6.432,9.59,1111122 
DISL,ioos:station:DISL:DISL:1,2011-12-03T03:30:00Z,30.2513,-88.0778,6.363,9.7,1111122 
DISL,ioos:station:DISL:DISL:1,2011-12-03T04:00:00Z,30.2513,-88.0778,6.318,9.68,1111122 
DISL,ioos:station:DISL:DISL:1,2011-12-03T04:30:00Z,30.2513,-88.0778,6.296,9.65,1111122 
DISL,ioos:station:DISL:DISL:1,2011-12-03T05:00:00Z,30.2513,-88.0778,6.312,9.78,1111122 
DISL,ioos:station:DISL:DISL:1,2011-12-03T05:30:00Z,30.2513,-88.0778,6.301,9.7,1111122 
DISL,ioos:station:DISL:DISL:1,2011-12-03T06:00:00Z,30.2513,-88.0778,6.269,9.55,1111122 
DISL,ioos:station:DISL:DISL:1,2011-12-03T06:30:00Z,30.2513,-88.0778,6.23,9.51,1111122 
DISL,ioos:station:DISL:DISL:1,2011-12-03T07:00:00Z,30.2513,-88.0778,6.257,9.44,1111122 
DISL,ioos:station:DISL:DISL:1,2011-12-03T07:30:00Z,30.2513,-88.0778,6.189,9.47,1111122 
DISL,ioos:station:DISL:DISL:1,2011-12-03T08:00:00Z,30.2513,-88.0778,6.213,9.49,1111122 
DISL,ioos:station:DISL:DISL:1,2011-12-03T08:30:00Z,30.2513,-88.0778,6.131,9.55,1111122 
DISL,ioos:station:DISL:DISL:1,2011-12-03T09:00:00Z,30.2513,-88.0778,6.137,9.53,1111122 
DISL,ioos:station:DISL:DISL:1,2011-12-03T09:30:00Z,30.2513,-88.0778,6.115,9.56,1111122 
DISL,ioos:station:DISL:DISL:1,2011-12-03T10:00:00Z,30.2513,-88.0778,6.101,9.56,1111122 
DISL,ioos:station:DISL:DISL:1,2011-12-03T10:30:00Z,30.2513,-88.0778,6.124,9.54,1111122 
DISL,ioos:station:DISL:DISL:1,2011-12-03T11:00:00Z,30.2513,-88.0778,6.093,9.48,1111122 
DISL,ioos:station:DISL:DISL:1,2011-12-03T11:30:00Z,30.2513,-88.0778,6.13,9.47,1111122 
DISL,ioos:station:DISL:DISL:1,2011-12-03T12:00:00Z,30.2513,-88.0778,6.098,9.42,1111122 
DISL,ioos:station:DISL:DISL:1,2011-12-03T12:30:00Z,30.2513,-88.0778,6.15,9.43,1111122 
DISL,ioos:station:DISL:DISL:1,2011-12-03T13:00:00Z,30.2513,-88.0778,6.142,9.45,1111122 
DISL,ioos:station:DISL:DISL:1,2011-12-03T13:30:00Z,30.2513,-88.0778,6.138,9.4,1111122 
DISL,ioos:station:DISL:DISL:1,2011-12-03T14:00:00Z,30.2513,-88.0778,6.113,9.46,1111122 
DISL,ioos:station:DISL:DISL:1,2011-12-03T14:30:00Z,30.2513,-88.0778,6.174,9.48,1111122 
DISL,ioos:station:DISL:DISL:1,2011-12-03T15:00:00Z,30.2513,-88.0778,6.158,9.34,1111122 
DISL,ioos:station:DISL:DISL:1,2011-12-03T15:30:00Z,30.2513,-88.0778,6.165,9.35,1111122 
DISL,ioos:station:DISL:DISL:1,2011-12-03T16:00:00Z,30.2513,-88.0778,6.004,9.27,1111122 
DISL,ioos:station:DISL:DISL:1,2011-12-03T16:30:00Z,30.2513,-88.0778,6.234,9.14,1111122 
DISL,ioos:station:DISL:DISL:1,2011-12-03T17:00:00Z,30.2513,-88.0778,6.255,8.96,1111122 
DISL,ioos:station:DISL:DISL:1,2011-12-03T17:30:00Z,30.2513,-88.0778,6.287,8.66,1111122 
DISL,ioos:station:DISL:DISL:1,2011-12-03T18:00:00Z,30.2513,-88.0778,6.255,8.47,1111122 
DISL,ioos:station:DISL:DISL:1,2011-12-03T18:30:00Z,30.2513,-88.0778,6.354,8.54,1111122 
DISL,ioos:station:DISL:DISL:1,2011-12-03T19:00:00Z,30.2513,-88.0778,6.354,8.46,1111122 
DISL,ioos:station:DISL:DISL:1,2011-12-03T19:30:00Z,30.2513,-88.0778,6.449,8.48,1111122 
DISL,ioos:station:DISL:DISL:1,2011-12-03T20:00:00Z,30.2513,-88.0778,6.471,8.42,1111122 
DISL,ioos:station:DISL:DISL:1,2011-12-03T20:30:00Z,30.2513,-88.0778,6.574,8.42,1111122 
DISL,ioos:station:DISL:DISL:1,2011-12-03T21:00:00Z,30.2513,-88.0778,6.521,8.55,1111122 
DISL,ioos:station:DISL:DISL:1,2011-12-03T21:30:00Z,30.2513,-88.0778,6.592,8.75,1111122 
DISL,ioos:station:DISL:DISL:1,2011-12-03T22:00:00Z,30.2513,-88.0778,6.639,8.82,1111122 
DISL,ioos:station:DISL:DISL:1,2011-12-03T22:30:00Z,30.2513,-88.0778,6.708,8.74,1111122 
DISL,ioos:station:DISL:DISL:1,2011-12-03T23:00:00Z,30.2513,-88.0778,6.689,8.79,1111122 
DISL,ioos:station:DISL:DISL:1,2011-12-03T23:30:00Z,30.2513,-88.0778,6.796,8.4,1111122 
DISL,ioos:station:DISL:DISL:1,2011-12-04T00:00:00Z,30.2513,-88.0778,6.806,8.18,1111122 
DISL,ioos:station:DISL:DISL:1,2011-12-04T00:30:00Z,30.2513,-88.0778,6.792,8.11,1111122 
DISL,ioos:station:DISL:DISL:1,2011-12-04T01:00:00Z,30.2513,-88.0778,6.801,7.72,1111122 
DISL,ioos:station:DISL:DISL:1,2011-12-04T01:30:00Z,30.2513,-88.0778,6.79,7.92,1111122 
DISL,ioos:station:DISL:DISL:1,2011-12-04T02:00:00Z,30.2513,-88.0778,6.825,7.73,1111122 
DISL,ioos:station:DISL:DISL:1,2011-12-04T02:30:00Z,30.2513,-88.0778,6.861,7.93,1111122 
DISL,ioos:station:DISL:DISL:1,2011-12-04T03:00:00Z,30.2513,-88.0778,6.815,8.15,1111122 
DISL,ioos:station:DISL:DISL:1,2011-12-04T03:30:00Z,30.2513,-88.0778,6.822,8.07,1111122 
DISL,ioos:station:DISL:DISL:1,2011-12-04T04:00:00Z,30.2513,-88.0778,6.818,8.04,1111122 
DISL,ioos:station:DISL:DISL:1,2011-12-04T04:30:00Z,30.2513,-88.0778,6.823,8.02,1111122 
DISL,ioos:station:DISL:DISL:1,2011-12-04T05:00:00Z,30.2513,-88.0778,6.774,8.15,1111122 
DISL,ioos:station:DISL:DISL:1,2011-12-04T05:30:00Z,30.2513,-88.0778,6.746,8.17,1111122 
DISL,ioos:station:DISL:DISL:1,2011-12-04T06:00:00Z,30.2513,-88.0778,6.716,8.24,1111122 
DISL,ioos:station:DISL:DISL:1,2011-12-04T06:30:00Z,30.2513,-88.0778,6.69,8.34,1111122 
DISL,ioos:station:DISL:DISL:1,2011-12-04T07:00:00Z,30.2513,-88.0778,6.667,8.33,1111122 
DISL,ioos:station:DISL:DISL:1,2011-12-04T07:30:00Z,30.2513,-88.0778,6.66,8.56,1111122 
DISL,ioos:station:DISL:DISL:1,2011-12-04T08:00:00Z,30.2513,-88.0778,6.64,8.63,1111122 
DISL,ioos:station:DISL:DISL:1,2011-12-04T08:30:00Z,30.2513,-88.0778,6.607,8.59,1111122 
DISL,ioos:station:DISL:DISL:1,2011-12-04T09:00:00Z,30.2513,-88.0778,6.564,8.67,1111122 
DISL,ioos:station:DISL:DISL:1,2011-12-04T09:30:00Z,30.2513,-88.0778,6.537,8.75,1111122 
DISL,ioos:station:DISL:DISL:1,2011-12-04T10:00:00Z,30.2513,-88.0778,6.549,8.78,1111122 
DISL,ioos:station:DISL:DISL:1,2011-12-04T10:30:00Z,30.2513,-88.0778,6.512,8.74,1111122 
DISL,ioos:station:DISL:DISL:1,2011-12-04T11:00:00Z,30.2513,-88.0778,6.529,8.76,1111122 
DISL,ioos:station:DISL:DISL:1,2011-12-04T11:30:00Z,30.2513,-88.0778,6.452,8.48,1111122 
DISL,ioos:station:DISL:DISL:1,2011-12-04T12:00:00Z,30.2513,-88.0778,6.471,8.18,1111122 
DISL,ioos:station:DISL:DISL:1,2011-12-04T12:30:00Z,30.2513,-88.0778,6.489,8.14,1111122 
DISL,ioos:station:DISL:DISL:1,2011-12-04T13:00:00Z,30.2513,-88.0778,6.557,8.32,1111122 
DISL,ioos:station:DISL:DISL:1,2011-12-04T13:30:00Z,30.2513,-88.0778,6.528,7.58,1111122 
DISL,ioos:station:DISL:DISL:1,2011-12-04T14:00:00Z,30.2513,-88.0778,6.505,7.37,1111122 
DISL,ioos:station:DISL:DISL:1,2011-12-04T14:30:00Z,30.2513,-88.0778,6.481,7.44,1111122 
DISL,ioos:station:DISL:DISL:1,2011-12-04T15:00:00Z,30.2513,-88.0778,6.469,7.42,1111122 
DISL,ioos:station:DISL:DISL:1,2011-12-04T15:30:00Z,30.2513,-88.0778,6.503,7.55,1111122 
DISL,ioos:station:DISL:DISL:1,2011-12-04T16:00:00Z,30.2513,-88.0778,6.549,7.6,1111122 
DISL,ioos:station:DISL:DISL:1,2011-12-04T16:30:00Z,30.2513,-88.0778,6.55,7.71,1111122 
DISL,ioos:station:DISL:DISL:1,2011-12-04T17:00:00Z,30.2513,-88.0778,6.613,7.76,1111122 
DISL,ioos:station:DISL:DISL:1,2011-12-04T17:30:00Z,30.2513,-88.0778,6.682,7.83,1111122 
DISL,ioos:station:DISL:DISL:1,2011-12-04T18:00:00Z,30.2513,-88.0778,6.672,7.87,1111122 
DISL,ioos:station:DISL:DISL:1,2011-12-04T18:30:00Z,30.2513,-88.0778,6.714,7.88,1111122 
DISL,ioos:station:DISL:DISL:1,2011-12-04T19:00:00Z,30.2513,-88.0778,6.722,7.88,1111122 
DISL,ioos:station:DISL:DISL:1,2011-12-04T19:30:00Z,30.2513,-88.0778,6.848,7.92,1111122 
DISL,ioos:station:DISL:DISL:1,2011-12-04T20:00:00Z,30.2513,-88.0778,6.905,7.77,1111122 
DISL,ioos:station:DISL:DISL:1,2011-12-04T20:30:00Z,30.2513,-88.0778,6.951,7.83,1111122 
DISL,ioos:station:DISL:DISL:1,2011-12-04T21:00:00Z,30.2513,-88.0778,6.98,7.96,1111122 
DISL,ioos:station:DISL:DISL:1,2011-12-04T21:30:00Z,30.2513,-88.0778,7.09,7.95,1111122 
DISL,ioos:station:DISL:DISL:1,2011-12-04T22:00:00Z,30.2513,-88.0778,7.13,8.11,1111122 
DISL,ioos:station:DISL:DISL:1,2011-12-04T22:30:00Z,30.2513,-88.0778,7.17,8.07,1111122 
DISL,ioos:station:DISL:DISL:1,2011-12-04T23:00:00Z,30.2513,-88.0778,7.27,7.99,1111122 
DISL,ioos:station:DISL:DISL:1,2011-12-04T23:30:00Z,30.2513,-88.0778,7.24,7.96,1111122 
DISL,ioos:station:DISL:DISL:1,2011-12-05T00:00:00Z,30.2513,-88.0778,7.33,7.89,1111122 
DISL,ioos:station:DISL:DISL:1,2011-12-05T00:30:00Z,30.2513,-88.0778,7.33,7.88,1111122 
DISL,ioos:station:DISL:DISL:1,2011-12-05T01:00:00Z,30.2513,-88.0778,7.37,7.83,1111122 
DISL,ioos:station:DISL:DISL:1,2011-12-05T01:30:00Z,30.2513,-88.0778,7.49,7.84,1111122 
DISL,ioos:station:DISL:DISL:1,2011-12-05T02:00:00Z,30.2513,-88.0778,7.38,7.83,1111122 
DISL,ioos:station:DISL:DISL:1,2011-12-05T02:30:00Z,30.2513,-88.0778,7.27,7.86,1111122 
DISL,ioos:station:DISL:DISL:1,2011-12-05T03:00:00Z,30.2513,-88.0778,7.31,7.8,1111122 
DISL,ioos:station:DISL:DISL:1,2011-12-05T03:30:00Z,30.2513,-88.0778,7.24,7.93,1111122 
DISL,ioos:station:DISL:DISL:1,2011-12-05T04:00:00Z,30.2513,-88.0778,7.24,7.96,1111122 
DISL,ioos:station:DISL:DISL:1,2011-12-05T04:30:00Z,30.2513,-88.0778,7.2,7.99,1111122 
DISL,ioos:station:DISL:DISL:1,2011-12-05T05:00:00Z,30.2513,-88.0778,7.11,8.01,1111122 
DISL,ioos:station:DISL:DISL:1,2011-12-05T05:30:00Z,30.2513,-88.0778,7.12,8.0,1111122 
DISL,ioos:station:DISL:DISL:1,2011-12-05T06:00:00Z,30.2513,-88.0778,6.991,7.95,1111122 
DISL,ioos:station:DISL:DISL:1,2011-12-05T06:30:00Z,30.2513,-88.0778,6.957,7.93,1111122 
DISL,ioos:station:DISL:DISL:1,2011-12-05T07:00:00Z,30.2513,-88.0778,6.96,7.92,1111122 
DISL,ioos:station:DISL:DISL:1,2011-12-05T07:30:00Z,30.2513,-88.0778,6.892,7.92,1111122 
DISL,ioos:station:DISL:DISL:1,2011-12-05T08:00:00Z,30.2513,-88.0778,6.861,8.0,1111122 
DISL,ioos:station:DISL:DISL:1,2011-12-05T08:30:00Z,30.2513,-88.0778,6.977,8.1,1111122 
DISL,ioos:station:DISL:DISL:1,2011-12-05T09:00:00Z,30.2513,-88.0778,6.787,8.06,1111122 
DISL,ioos:station:DISL:DISL:1,2011-12-05T09:30:00Z,30.2513,-88.0778,6.712,8.03,1111122 
DISL,ioos:station:DISL:DISL:1,2011-12-05T10:00:00Z,30.2513,-88.0778,6.73,8.02,1111122 
DISL,ioos:station:DISL:DISL:1,2011-12-05T10:30:00Z,30.2513,-88.0778,6.695,8.05,1111122 
DISL,ioos:station:DISL:DISL:1,2011-12-05T11:00:00Z,30.2513,-88.0778,6.685,8.05,1111122 
DISL,ioos:station:DISL:DISL:1,2011-12-05T11:30:00Z,30.2513,-88.0778,6.636,8.03,1111122 
DISL,ioos:station:DISL:DISL:1,2011-12-05T12:00:00Z,30.2513,-88.0778,6.626,8.03,1111122 
DISL,ioos:station:DISL:DISL:1,2011-12-05T12:30:00Z,30.2513,-88.0778,6.654,7.87,1111122 
DISL,ioos:station:DISL:DISL:1,2011-12-05T13:00:00Z,30.2513,-88.0778,6.645,7.83,1111122 
DISL,ioos:station:DISL:DISL:1,2011-12-05T13:30:00Z,30.2513,-88.0778,6.662,7.8,1111122 
DISL,ioos:station:DISL:DISL:1,2011-12-05T14:00:00Z,30.2513,-88.0778,6.66,7.81,1111122 
DISL,ioos:station:DISL:DISL:1,2011-12-05T14:30:00Z,30.2513,-88.0778,6.737,7.82,1111122 
DISL,ioos:station:DISL:DISL:1,2011-12-05T15:00:00Z,30.2513,-88.0778,6.726,7.64,1111122 
DISL,ioos:station:DISL:DISL:1,2011-12-05T15:30:00Z,30.2513,-88.0778,6.823,7.74,1111122 
DISL,ioos:station:DISL:DISL:1,2011-12-05T16:00:00Z,30.2513,-88.0778,6.794,7.7,1111122 
DISL,ioos:station:DISL:DISL:1,2011-12-05T16:30:00Z,30.2513,-88.0778,6.864,7.65,1111122 
DISL,ioos:station:DISL:DISL:1,2011-12-05T17:00:00Z,30.2513,-88.0778,6.92,7.74,1111122 
DISL,ioos:station:DISL:DISL:1,2011-12-05T17:30:00Z,30.2513,-88.0778,6.904,7.7,1111122 
DISL,ioos:station:DISL:DISL:1,2011-12-05T18:00:00Z,30.2513,-88.0778,7.12,7.72,1111122 
DISL,ioos:station:DISL:DISL:1,2011-12-05T18:30:00Z,30.2513,-88.0778,7.11,7.83,1111122 
DISL,ioos:station:DISL:DISL:1,2011-12-05T19:00:00Z,30.2513,-88.0778,6.994,7.73,1111122 
DISL,ioos:station:DISL:DISL:1,2011-12-05T19:30:00Z,30.2513,-88.0778,7.07,8.07,1111122 
DISL,ioos:station:DISL:DISL:1,2011-12-05T20:00:00Z,30.2513,-88.0778,7.17,7.95,1111122 
DISL,ioos:station:DISL:DISL:1,2011-12-05T20:30:00Z,30.2513,-88.0778,7.27,7.73,1111122 
DISL,ioos:station:DISL:DISL:1,2011-12-05T21:00:00Z,30.2513,-88.0778,7.37,7.71,1111122 
DISL,ioos:station:DISL:DISL:1,2011-12-05T21:30:00Z,30.2513,-88.0778,7.36,7.87,1111122 
DISL,ioos:station:DISL:DISL:1,2011-12-05T22:00:00Z,30.2513,-88.0778,7.67,7.88,1111122 
DISL,ioos:station:DISL:DISL:1,2011-12-05T22:30:00Z,30.2513,-88.0778,7.46,7.93,1111122 
DISL,ioos:station:DISL:DISL:1,2011-12-05T23:00:00Z,30.2513,-88.0778,7.4,7.93,1111122 
DISL,ioos:station:DISL:DISL:1,2011-12-05T23:30:00Z,30.2513,-88.0778,7.49,7.92,1111122 
DISL,ioos:station:DISL:DISL:1,2011-12-06T00:00:00Z,30.2513,-88.0778,7.44,8.05,1111122 
DISL,ioos:station:DISL:DISL:1,2011-12-06T00:30:00Z,30.2513,-88.0778,7.52,8.09,1111122 
DISL,ioos:station:DISL:DISL:1,2011-12-06T01:00:00Z,30.2513,-88.0778,7.47,8.17,1111122 
DISL,ioos:station:DISL:DISL:1,2011-12-06T01:30:00Z,30.2513,-88.0778,7.43,8.01,1111122 
DISL,ioos:station:DISL:DISL:1,2011-12-06T02:00:00Z,30.2513,-88.0778,7.4,7.67,1111122 
DISL,ioos:station:DISL:DISL:1,2011-12-06T02:30:00Z,30.2513,-88.0778,7.37,7.59,1111122 
DISL,ioos:station:DISL:DISL:1,2011-12-06T03:00:00Z,30.2513,-88.0778,7.32,7.59,1111122 
DISL,ioos:station:DISL:DISL:1,2011-12-06T03:30:00Z,30.2513,-88.0778,7.25,7.64,1111122 
DISL,ioos:station:DISL:DISL:1,2011-12-06T04:00:00Z,30.2513,-88.0778,7.15,7.65,1111122 
DISL,ioos:station:DISL:DISL:1,2011-12-06T04:30:00Z,30.2513,-88.0778,7.12,7.74,1111122 
DISL,ioos:station:DISL:DISL:1,2011-12-06T05:00:00Z,30.2513,-88.0778,6.995,7.5,1111122 
DISL,ioos:station:DISL:DISL:1,2011-12-06T05:30:00Z,30.2513,-88.0778,6.9,8.05,1111122 
DISL,ioos:station:DISL:DISL:1,2011-12-06T06:00:00Z,30.2513,-88.0778,6.81,8.1,1111122 
DISL,ioos:station:DISL:DISL:1,2011-12-06T06:30:00Z,30.2513,-88.0778,6.742,8.29,1111122 
DISL,ioos:station:DISL:DISL:1,2011-12-06T07:00:00Z,30.2513,-88.0778,6.686,8.38,1111122 
DISL,ioos:station:DISL:DISL:1,2011-12-06T07:30:00Z,30.2513,-88.0778,6.616,8.52,1111122 
DISL,ioos:station:DISL:DISL:1,2011-12-06T08:00:00Z,30.2513,-88.0778,6.579,8.72,1111122 
DISL,ioos:station:DISL:DISL:1,2011-12-06T08:30:00Z,30.2513,-88.0778,6.529,8.82,1111122 
DISL,ioos:station:DISL:DISL:1,2011-12-06T09:00:00Z,30.2513,-88.0778,6.446,8.86,1111122 
DISL,ioos:station:DISL:DISL:1,2011-12-06T09:30:00Z,30.2513,-88.0778,6.376,8.94,1111122 
DISL,ioos:station:DISL:DISL:1,2011-12-06T10:00:00Z,30.2513,-88.0778,6.343,8.85,1111122 
DISL,ioos:station:DISL:DISL:1,2011-12-06T10:30:00Z,30.2513,-88.0778,6.26,8.89,1111122 
DISL,ioos:station:DISL:DISL:1,2011-12-06T11:00:00Z,30.2513,-88.0778,6.254,8.83,1111122 
DISL,ioos:station:DISL:DISL:1,2011-12-06T11:30:00Z,30.2513,-88.0778,6.198,8.79,1111122 
DISL,ioos:station:DISL:DISL:1,2011-12-06T12:00:00Z,30.2513,-88.0778,6.179,8.79,1111122 
DISL,ioos:station:DISL:DISL:1,2011-12-06T12:30:00Z,30.2513,-88.0778,6.153,8.76,1111122 
DISL,ioos:station:DISL:DISL:1,2011-12-06T13:00:00Z,30.2513,-88.0778,6.246,8.75,1111122 
DISL,ioos:station:DISL:DISL:1,2011-12-06T13:30:00Z,30.2513,-88.0778,6.211,8.61,1111122 
DISL,ioos:station:DISL:DISL:1,2011-12-06T14:00:00Z,30.2513,-88.0778,6.243,8.57,1111122 
DISL,ioos:station:DISL:DISL:1,2011-12-06T14:30:00Z,30.2513,-88.0778,6.282,8.18,1111122 
DISL,ioos:station:DISL:DISL:1,2011-12-06T15:00:00Z,30.2513,-88.0778,6.282,7.85,1111122 
DISL,ioos:station:DISL:DISL:1,2011-12-06T15:30:00Z,30.2513,-88.0778,6.427,7.79,1111122 